Location: Unspecified
(0.0000°N, 0.0000°E)
Time: 12:13:43
(UTC+02:00)

Palapa 6 Rocket - Visible Passes

Search period start: 22 September 2014 00:00
Search period end: 02 October 2014 00:00
Orbit: 486 x 1235 km, 22.7° (Epoch: 20 September)

Date Brightness Start Highest point End Pass type
(mag) Time Alt. Az. Time Alt. Az. Time Alt. Az.
27 Sep 6.1 20:27:14 10° SSW 20:29:26 12° S 20:31:31 10° SSE visible
27 Sep 6.0 22:15:17 10° SSW 22:16:45 15° SSW 22:16:45 15° SSW visible
28 Sep 6.0 20:14:27 10° SSW 20:17:43 13° S 20:20:47 10° SE visible
28 Sep 5.6 22:02:51 10° SW 22:05:50 20° SSW 22:05:50 20° SSW visible
29 Sep 5.2 21:50:27 10° SW 21:54:56 27° S 21:54:56 27° S visible
30 Sep 4.8 21:38:06 10° SW 21:44:04 35° SSE 21:44:04 35° SSE visible
01 Oct 4.5 21:25:47 10° SW 21:32:37 42° SSE 21:33:12 41° SE visible
